Location: Feydey
(46.3431°N, 7.0106°E)
Time: 19:55:10
(UTC+00:00)

Cosmos 1328 - Pass Details

Date: 21 October 2021
Orbit: 529 x 552 km, 82.5° (Epoch: 03 December)

Event Time Altitude Azimuth Distance (km) Brightness Sun altitude
Rises 17:40:13 0° 353° (N) 2,734 7.4 -12.0°
Reaches altitude 10° 17:42:25 10° 356° (N) 1,837 6.5 -12.4°
Maximum altitude 17:46:26 67° 80° (E) 603 3.7 -13.1°
Drops below altitude 10° 17:50:27 10° 163° (SSE) 1,826 6.3 -13.7°
Sets 17:52:37 0° 166° (SSE) 2,715 7.2 -14.1°
